CW7664 Weather Reports


Display with metric or nautical units.
time (UTC)temp
F
wind
direction
speed
MPH
gust
MPH
rain 1hr
in
rain 24hr
in
rain mn
in
humidity
%
barometer
mb
20220808130033 62 241 0.0 0.0 0.00 0.00 0.00 86 1011.7
20220808124533 62 241 0.0 0.0 0.00 0.00 0.00 85 1011.8
20220808123031 62 241 0.0 0.0 0.00 0.00 0.00 84 1011.6
20220808121529 62 241 0.0 0.0 0.00 0.00 0.00 85 1011.5
20220808120028 62 241 0.0 0.0 0.00 0.00 0.00 85 1011.5
20220808114526 63 241 0.0 0.0 0.00 0.00 0.00 85 1011.4
20220808113025 63 241 0.0 0.0 0.00 0.00 0.00 85 1011.3
20220808111524 63 241 0.0 0.0 0.00 0.00 0.00 84 1011.1
20220808110027 64 241 0.0 0.0 0.00 0.00 0.00 84 1011.1
20220808104638 63 241 0.0 0.0 0.00 0.00 0.00 84 1011.2
20220808103019 64 241 0.0 0.0 0.00 0.00 0.00 84 1011.2
20220808101519 64 241 0.0 0.0 0.00 0.00 0.00 84 1011.1
20220808100028 64 241 0.0 0.0 0.00 0.00 0.00 85 1011.2
20220808094519 64 241 0.0 0.0 0.00 0.00 0.00 85 1011.1
20220808093021 64 241 0.0 0.0 0.00 0.00 0.00 85 1011.1
20220808091516 64 241 0.0 0.0 0.00 0.00 0.00 84 1011.3
20220808090021 64 241 0.0 0.0 0.00 0.00 0.00 83 1011.4
20220808084513 64 241 0.0 0.0 0.00 0.00 0.00 83 1011.4
20220808083024 64 241 0.0 0.0 0.00 0.00 0.00 82 1011.5
20220808081511 65 241 0.0 0.0 0.00 0.00 0.00 83 1011.3
20220808080009 64 241 0.0 0.0 0.00 0.00 0.00 83 1011.5
20220808074508 64 241 0.0 0.0 0.00 0.00 0.00 82 1011.6
20220808073007 65 241 0.0 0.0 0.00 0.00 0.00 82 1011.7
20220808071505 65 241 0.0 0.0 0.00 0.00 0.00 81 1011.6
20220808070003 66 241 0.0 0.0 0.00 0.00 0.00 80 1011.6
20220808064504 66 241 0.0 0.0 0.00 0.00 0.00 79 1011.7
20220808063002 66 241 0.0 0.0 0.00 0.00 0.00 79 1011.8
20220808061501 67 241 0.0 0.0 0.00 0.00 0.00 79 1011.6
20220808060101 67 241 0.0 0.0 0.00 0.00 0.00 79 1011.5
20220808060001 67 241 0.0 0.0 0.00 0.00 0.00 78 1011.5
20220808054501 67 241 0.0 0.0 0.00 0.00 0.00 78 1011.3
20220808053109 68 241 0.0 0.0 0.00 0.00 0.00 76 1011.1
20220808051559 69 241 0.0 0.0 0.00 0.00 0.00 75 1011.1
20220808050059 69 241 0.0 0.0 0.00 0.00 0.00 73 1011.0
20220808044559 70 241 0.0 0.0 0.00 0.00 0.00 72 1010.9
20220808043107 71 241 0.0 0.0 0.00 0.00 0.00 72 1010.8
20220808041604 71 241 0.0 0.0 0.00 0.00 0.00 72 1010.8
20220808040105 72 241 0.0 0.0 0.00 0.00 0.00 71 1010.7
20220808034557 72 240 0.0 0.0 0.00 0.00 0.00 70 1010.6
20220808033056 73 241 0.0 0.0 0.00 0.00 0.00 69 1010.5
20220808031558 73 241 0.0 0.0 0.00 0.00 0.00 68 1010.4
20220808030056 74 242 0.0 0.0 0.00 0.00 0.00 66 1010.3
20220808024555 75 244 0.0 0.0 0.00 0.00 0.00 65 1010.0
20220808023055 76 253 0.0 3.0 0.00 0.00 0.00 63 1009.8
20220808021557 77 267 0.0 7.0 0.00 0.00 0.00 61 1009.6
20220808020055 79 275 0.0 8.0 0.00 0.00 0.00 58 1009.6
20220808014556 79 272 0.0 2.0 0.00 0.00 0.00 57 1009.4
20220808013058 80 256 0.0 6.0 0.00 0.00 0.00 55 1009.5
20220808011553 81 292 0.0 9.0 0.00 0.00 0.00 54 1009.5
20220808010054 82 240 0.0 9.0 0.00 0.00 0.00 52 1009.6
20220808004550 83 273 1.0 10.0 0.00 0.00 0.00 50 1009.5
20220808003053 84 234 0.0 10.0 0.00 0.00 0.00 48 1009.7
20220808001549 85 236 0.0 8.0 0.00 0.00 0.00 47 1009.6
20220808000049 85 265 1.0 9.0 0.00 0.00 0.00 45 1009.6
20220807234548 87 254 0.0 9.0 0.00 0.00 0.00 43 1009.8
20220807233048 87 248 1.0 11.0 0.00 0.00 0.00 41 1010.0
20220807231548 88 287 2.0 9.0 0.00 0.00 0.00 40 1010.0
20220807230049 88 258 1.0 10.0 0.00 0.00 0.00 41 1010.0
20220807224542 88 251 0.0 9.0 0.00 0.00 0.00 42 1010.1
20220807223045 88 213 0.0 10.0 0.00 0.00 0.00 42 1010.1
20220807221541 89 211 2.0 9.0 0.00 0.00 0.00 40 1010.3
20220807220038 90 167 1.0 7.0 0.00 0.00 0.00 39 1010.3
20220807214537 89 244 0.0 7.0 0.00 0.00 0.00 41 1010.4
20220807213046 89 291 2.0 10.0 0.00 0.00 0.00 39 1010.5
20220807211536 90 241 1.0 9.0 0.00 0.00 0.00 39 1010.6
20220807210041 89 285 1.0 11.0 0.00 0.00 0.00 40 1010.7
20220807204535 90 256 1.0 12.0 0.00 0.00 0.00 37 1010.9
20220807203034 90 284 1.0 11.0 0.00 0.00 0.00 37 1011.0
20220807201533 90 210 2.0 7.0 0.00 0.00 0.00 37 1011.1
20220807200033 89 202 2.0 9.0 0.00 0.00 0.00 38 1011.2
20220807194529 90 178 0.0 9.0 0.00 0.00 0.00 37 1011.1
20220807193026 89 242 1.0 11.0 0.00 0.00 0.00 39 1011.2
20220807191526 89 241 2.0 10.0 0.00 0.00 0.00 39 1011.3
20220807190022 88 285 0.0 8.0 0.00 0.00 0.00 41 1011.4
20220807184516 88 211 0.0 8.0 0.00 0.00 0.00 43 1011.5
20220807183022 87 277 2.0 10.0 0.00 0.00 0.00 44 1011.6
20220807181510 87 211 1.0 5.0 0.00 0.00 0.00 46 1011.7
20220807180011 86 292 0.0 7.0 0.00 0.00 0.00 46 1011.7
20220807174501 85 242 1.0 9.0 0.00 0.00 0.00 43 1011.4
20220807173059 85 257 0.0 1.0 0.00 0.00 0.00 43 1011.7
20220807171554 83 269 0.0 0.0 0.00 0.00 0.00 43 1011.4
20220807170052 82 273 0.0 0.0 0.00 0.00 0.00 45 1011.4
20220807164548 80 273 0.0 0.0 0.00 0.00 0.00 45 1011.6
20220807163056 79 273 0.0 0.0 0.00 0.00 0.00 44 1011.8
20220807161535 77 273 0.0 0.0 0.00 0.00 0.00 49 1011.9
20220807160034 76 273 0.0 0.0 0.00 0.00 0.00 55 1011.9
20220807154534 74 273 0.0 0.0 0.00 0.00 0.00 58 1011.9
20220807153025 73 273 0.0 0.0 0.00 0.00 0.00 63 1012.0
20220807151520 70 273 0.0 0.0 0.00 0.00 0.00 71 1011.8
20220807150018 68 273 0.0 0.0 0.00 0.00 0.00 78 1011.8
20220807144509 66 273 0.0 0.0 0.00 0.00 0.00 84 1011.8
20220807143005 63 273 0.0 0.0 0.00 0.00 0.00 89 1011.8
20220807141600 60 273 0.0 0.0 0.00 0.00 0.00 89 1011.7
20220807140057 58 273 0.0 0.0 0.00 0.00 0.00 89 1011.7
20220807134550 58 273 0.0 0.0 0.00 0.00 0.00 89 1011.6
20220807133050 58 273 0.0 0.0 0.00 0.00 0.00 89 1011.3
20220807131544 58 273 0.0 0.0 0.00 0.00 0.00 88 1011.2